Regional Weather Roundup
Issued by NWS Lake Charles, LA

Home | Current Version | Previous Version | Text Only | Print | Product List | Glossary On
Versions: 1 2 3 4 5 6 7 8 9 10 11 12 13 14 15 16 17 18 19 20 21 22 23 24 25 26 27 28 29 30 31 32 33 34 35 36 37 38 39 40 41 42 43 44 45 46 47 48 49 50
866
ASUS44 KLCH 270710
RWRLCH
REGIONAL WEATHER ROUNDUP
NATIONAL WEATHER SERVICE LAKE CHARLES LA
200 AM CDT THU APR 27 2017

Note: "fair" indicates few or no clouds below 12,000 feet with no
significant weather and/or obstructions to visibility.


ACROSS SOUTHEAST TEXAS

CITY           SKY/WX    TMP DP  RH WIND       PRES   REMARKS
BEAUMONT       PTCLDY    59  51  75 N14G22    29.78R
BEAUMONT CITY  FAIR      58  53  84 N9        29.80R
ORANGE         MOSUNNY   59  52  79 N9G21     29.80S
JASPER           N/A     58  52  80 N8        29.83R
$$

ACROSS CENTRAL LOUISIANA

CITY           SKY/WX    TMP DP  RH WIND       PRES   REMARKS
LEESVILLE      CLOUDY    57  53  88 NW8       29.78R
FULLERTON      CLOUDY    56  51  84 N9G18     29.76R
ALEXANDRIA INT CLOUDY    57  51  80 NW18G24   29.76R
ESLER FIELD    CLOUDY    58  53  84 NW10      29.76R
DERIDDER       CLOUDY    57  56  95 NW6       29.80S
OAKDALE        CLOUDY    58  54  86 N8        29.77R
OPELOUSAS      CLOUDY    60  56  88 NW10G16   29.76R
$$

ACROSS SOUTHWEST AND SOUTH CENTRAL LOUISIANA

CITY           SKY/WX    TMP DP  RH WIND       PRES   REMARKS
SULPHUR        PTSUNNY   58  55  88 N10G16    29.78S
LAKE CHARLES   PTCLDY    59  54  83 N14       29.77R
CHENNAULT INT  MOCLDY    57  55  91 N9        29.78R
CAMERON PHI    MOSUNNY   61  55  82 N12       29.76S
DEQUINCY       FAIR      56  54  93 NW5       29.78S
JENNINGS       CLOUDY    60  55  83 NW14      29.77R
LAFAYETTE      MOCLDY    70  62  76 NW10      29.74R
NEW IBERIA     CLOUDY    68  60  75 NW9       29.74R
ABBEVILLE      CLOUDY    66  63  88 NW7       29.74S
PATTERSON      MOCLDY    70  57  63 N5        29.73S
SALT POINT       N/A     71  57  61 VRB5        N/A
$$

SELECTED SITES ACROSS THE REGION

CITY           SKY/WX    TMP DP  RH WIND       PRES   REMARKS
HOUSTON BUSH   PTCLDY    61  51  70 NE9       29.80S
HOUSTON HOBBY  PTCLDY    63  51  65 N16       29.79R
GALVESTON      CLEAR     68  58  70 N24G30    29.78R
COLLEGE STAT   CLEAR     57  48  72 NE10      29.78F
CONROE         PTCLDY    57  50  77 N3        29.79F
HUNTSVILLE     CLEAR     55  48  77 VRB3      29.79F
LUFKIN         CLEAR     52  48  86 CALM      29.80S
SHREVEPORT     PTCLDY    53  48  83 NW9       29.78S
MONROE         CLOUDY    55  49  80 W13       29.76S
NATCHEZ MS     NOT AVBL
BATON ROUGE    MOCLDY    66  60  81 NW7       29.73R
N.O. INTL ARPT CLOUDY    76  73  91 SW8       29.69F
SLIDELL        CLOUDY    77  73  87 SW8       29.69S
$$

MARINE REPORTS

STATION/POSITION TIME  SKY/WX   TEMP    WIND        PRES    VSBY
                                AIR SEA DIR/SP/G
                 (UTC)          (F)     (DEG/KT/KT) (MB)    (MI)
BUOY 30 S HIGH I 0650            67 75  340/ 23/ 27 1007.6R
WVE H/P(F/S)=  4/ 4

SEA RIM ST PARK  0600            61     350/  7/  9 1008.8R
PORT ARTHUR      0648                   350/ 12/ 18   N/A
SABINE PASS N    0648                   330/ 14/ 19   N/A
TEXAS POINT      NOT AVBL
CALCASIEU PASS   0642            62 74  360/ 12/ 16   N/A
LK CHARLES BEACH 0642            59 74              1008.6R
MARSH ISLAND     0600            72                   N/A
FRESH WATER LOCK 0642            68 75  300/  7/ 11 1006.8S
AMERADA PASS     0642            73 72  300/ 11/ 18 1006.1R
$$




USA.gov is the U.S. government's official web portal to all federal, state and local government web resources and services.